Regional Weather Roundup
Issued by NWS

Home | Current Version | Previous Version | Text Only | Print | Product List | Glossary Off
Versions: 1 2 3 4 5 6 7 8 9 10 11 12 13 14 15 16 17 18 19 20 21 22 23 24 25 26 27 28 29 30 31 32 33 34 35 36 37 38 39 40 41 42 43 44 45 46 47 48 49 50

000
ASUS43 KMKX 260800
RWRWI

WISCONSIN REGIONAL WEATHER ROUNDUP
NATIONAL WEATHER SERVICE MILWAUKEE/SULLIVAN WI
300 AM CDT WED APR 26 2017

NOTE: "FAIR" INDICATES FEW OR NO CLOUDS BELOW 12,000 FEET WITH NO
SIGNIFICANT WEATHER AND/OR OBSTRUCTIONS TO VISIBILITY.

WIZ001-002-006>008-014>016-023>028-260900-
NORTHWEST WISCONSIN

CITY           SKY/WX    TMP DP  RH WIND       PRES   REMARKS
SUPERIOR ARPT  DRIZZLE   35  33  95 E18G28    29.69F WCI  24
ASHLAND        CLOUDY    32  30  92 NE17G28   29.69F WCI  21
HAYWARD        LGT RAIN  33  30  88 NE20      29.58F WCI  21
SIREN          LGT RAIN  35  34  94 NE15G22   29.58F WCI  25
CUMBERLAND     LGT RAIN  36  34  93 NE16      29.53F WCI  26
RICE LAKE      LGT RAIN  38  37  94 N16G23    29.53F WCI  29
CHETEK         LGT RAIN  41  41  97 NE8       29.52F
LADYSMITH      LGT RAIN  41  39  94 N12       29.55F
EAU CLAIRE     NOT AVBL
MENOMONIE      DRIZZLE   45  45  98 N10       29.48F
NEW RICHMOND   LGT RAIN  42  41  95 NE13G23   29.50F
OSCEOLA        DRIZZLE   41  41 100 NE13G18   29.55F
$$

WIZ003>005-009-010-017-018-260900-
NORTH CENTRAL WISCONSIN

CITY           SKY/WX    TMP DP  RH WIND       PRES   REMARKS
MANITOWISH WTR RAIN      34  34 100 NE12G18   29.59F WCI  25
ARBOR VITAE    RAIN      38  37  95 NE8       29.57F WCI  32
WOODRUFF       RAIN      38  37  95 NE8       29.57F WCI  32
RHINELANDER    LGT RAIN  45  45 100 VRB6      29.55F
EAGLE RIVER    HVY RAIN  40  40 100 N7        29.58F WCI  35
LAND O LAKES   RAIN      37  37  99 NE6       29.63F WCI  32
PHILLIPS       LGT RAIN  36  36 100 NE10      29.55F WCI  28
TOMAHAWK       CLOUDY    45  43  95 NE5       29.55F FOG
MEDFORD        RAIN      51  50  96 NE9       29.49F
MERRILL        CLOUDY    54  54 100 NE3       29.52F
$$

WIZ029-030-035-036-043>047-260900-
CENTRAL WISCONSIN

CITY           SKY/WX    TMP DP  RH WIND       PRES   REMARKS
WAUSAU         LGT RAIN  55  54  96 E7        29.48F
MOSINEE        RAIN      55  54  94 E9        29.50F
MARSHFIELD     LGT RAIN  56  52  86 E10       29.45F
STEVENS POINT  LGT RAIN  57  55  92 E10       29.49F
WAUPACA        LGT RAIN  60  55  82 E8        29.50F
WAUTOMA        LGT RAIN  60  56  86 SE6       29.46F
WISC RAPIDS    LGT RAIN  58  56  93 E5        29.46F
CAMP DOUGLAS   PTCLDY    55  54  94 CALM      29.43F
$$

WIZ011>013-019>022-031-037>040-048>050-260900-
NORTHEAST WISCONSIN

CITY           SKY/WX    TMP DP  RH WIND       PRES   REMARKS
ANTIGO         CLOUDY    51  51  97 E17G24    29.52F
SHAWANO        RAIN      54  50  89 NE10      29.53F
OCONTO         CLOUDY    48  45  88 NE6       29.55F
STURGEON BAY   CLOUDY    52  48  86 E8        29.55F
GREEN BAY      CLOUDY    53  53 100 NE5       29.52F
MANITOWOC      NOT AVBL
APPLETON       DRIZZLE   55  50  82 SE10      29.49F
CLINTONVILLE   RAIN      54  52  94 E3        29.51F
OSHKOSH        LGT RAIN  60  53  77 SE6       29.48F
$$

WIZ032>034-041-042-053>061-260900-
SOUTHWEST WISCONSIN

CITY           SKY/WX    TMP DP  RH WIND       PRES   REMARKS
LA CROSSE      CLOUDY    57  56  96 CALM      29.40F
SPARTA         DRIZZLE   54  54 100 CALM      29.45F
VIROQUA        CLOUDY    55  54  97 E5        29.42F
BOSCOBEL       CLOUDY    58  56  93 CALM      29.41F
PRAIRIE DU CHI DRIZZLE   57  56  95 CALM      29.40F
PLATTEVILLE    CLOUDY    61  56  83 SE8       29.42F
$$

WIZ056-057-062-063-064-067-068-260900-
SOUTH CENTRAL WISCONSIN

CITY           SKY/WX    TMP DP  RH WIND       PRES   REMARKS
REEDSBURG      RAIN      63  52  69 CALM      29.43F
BARABOO/DELLS  DRIZZLE   61  52  70 S6        29.44F
LONE ROCK      NOT AVBL
MINERAL POINT  CLOUDY    63  55  77 SE9       29.43F
MADISON        CLOUDY    63  54  72 CALM      29.44F
MIDDLETON      CLOUDY    64  55  71 SE3       29.45F
WATERTOWN      MOCLDY    62  54  74 E7        29.47F
MONROE         PTCLDY    63  52  67 S7        29.45F
JANESVILLE     CLOUDY    68  52  56 S10G16    29.45F
$$

WIZ051-052-058>065-066-070>072-260900-
SOUTHEAST WISCONSIN

CITY           SKY/WX    TMP DP  RH WIND       PRES   REMARKS
MILWAUKEE      LGT RAIN  61  53  75 S9        29.50F
WAUKESHA       PTCLDY    59  50  72 SE5       29.51F
MILWAUKEE/TIMM CLOUDY    59  48  67 SE6       29.51F
RACINE         CLOUDY    56  48  74 S13       29.52F
KENOSHA        MOCLDY    61  52  72 SE8       29.49F
FOND DU LAC    CLOUDY    62  51  67 SE13      29.48F
SHEBOYGAN      CLOUDY    56  51  84 S6        29.52F
WEST BEND      CLOUDY    59  52  77 SE5       29.51F
JUNEAU         CLOUDY    60  54  78 E7        29.49F
$$

LSZ147-162-260900-
LAKE SUPERIOR

STATION/POSITION TIME  TEMP    WIND        PRES    WAVE
                       AIR SEA DIR/SP/G            HT/PER
                 (UTC) (F)     (DEG/KT/KT) (MB)    (FT/S)
DEVILS ISLAND    0700   32      50/ 27/ 30 1008.2F
SAXON HARBOR     0740   35      40/ 26/ 29 1005.1F
$$

LMZ867-665-643>646-260900-
LAKE MICHIGAN

STATION/POSITION TIME  TEMP    WIND        PRES    WAVE
                       AIR SEA DIR/SP/G            HT/PER
                 (UTC) (F)     (DEG/KT/KT) (MB)    (FT/S)
CHAMBERS ISLAND  0740   41      20/  9/ 11 1001.4F
N MID LAKE BUOY  0650   41 37   80/ 10/ 10 1003.8F   2/ 4
NORTHPORT PIER   0740   43      80/  8/ 12 1002.0F
SISTER BAY       0606   47     110/  5/  7   N/A
KEWAUNEE LAKESHO 0730   56      90/  4/  9 1000.3F
SHEBOYGAN LAKESH 0700   49     140/  9/ 12  999.8F
PORT WASHINGTON  0740   52     200/  3/  8 1000.7F
MILWAUKEE LAKESH 0730   50     150/  6/  8   N/A
S MID LAKE BUOY  0650   50 41  110/ 12/ 14 1001.0F   1
KENOSHA   LAKESH 0700   52     170/ 10/ 12 1000.0
$$

TC  - TEMPERATURE IN CELSIUS
VSB - VISIBILITY IN STATUTE MILES
WCI - WIND CHILL INDEX
HX  - HEAT INDEX





USA.gov is the U.S. government's official web portal to all federal, state and local government web resources and services.